Regional Weather Roundup
Issued by NWS

Home | Current Version | Previous Version | Text Only | Print | Product List | Glossary On
Versions: 1 2 3 4 5 6 7 8 9 10 11 12 13 14 15 16 17 18 19 20 21 22 23 24 25 26 27
000
ASUS46 KPQR 232310
RWROR

OREGON REGIONAL WEATHER ROUNDUP
NATIONAL WEATHER SERVICE PORTLAND OR
400 PM PDT THU MAR 23 2017

NOTE: "FAIR" INDICATES FEW OR NO CLOUDS BELOW 12,000 FEET WITH
NO SIGNIFICANT WEATHER AND/OR OBSTRUCTIONS TO VISIBILITY.

ORZ001>013-240000-
NORTHWEST OREGON


CITY           SKY/WX    TMP DP  RH WIND       PRES   REMARKS
ASTORIA        LGT RAIN  50  38  63 S10G26    29.93R
NEWPORT        LGT RAIN  52  43  71 SE8G20    29.95F
PORTLAND       CLOUDY    56  34  43 E6        29.96F
VANCOUVER WA   CLOUDY    57  38  48 E3        29.96F
SCAPPOOSE      CLOUDY    55  37  50 SE7       29.95F
HILLSBORO      CLOUDY    57  38  48 S10       29.96F
AURORA         CLOUDY    56  37  49 SW6       29.97F
MCMINNVILLE    CLOUDY    55  40  56 SW8       29.97F
SALEM          CLOUDY    57  37  47 SW8       29.95F
CORVALLIS        N/A     55  37  50 CALM      29.95F
EUGENE         LGT RAIN  55  39  54 S13G24    29.96F
$$

ORZ021-028-240000-
SOUTHWEST OREGON


CITY           SKY/WX    TMP DP  RH WIND       PRES   REMARKS
NORTH BEND     CLOUDY    55  39  54 S10G28    29.96S
BROOKINGS      LGT RAIN  49  45  86 S17G24    30.07S
ROSEBURG       CLOUDY    58  32  37 S12       29.96F
SEXTON SUMMIT  CLOUDY    42  32  67 S8        29.96F
MEDFORD        CLOUDY    60  28  29 W9        29.97F
$$

ORZ014>016-041-240000-
COLUMBIA GORGE


CITY           SKY/WX    TMP DP  RH WIND       PRES   REMARKS
TROUTDALE      CLOUDY    56  37  49 E12       29.96F
THE DALLES     PTSUNNY   59  33  37 VRB3      29.98F
$$

ORZ029>031-041-044-049-050-061>064-502-503-505>511-240000-
EASTERN OREGON


CITY           SKY/WX    TMP DP  RH WIND       PRES   REMARKS
REDMOND        PTSUNNY   57  11  16 SW13      29.92F
BEND           PTSUNNY   55  14  19 S10       29.93S
PRINEVILLE     MOSUNNY   57  18  21 SE12      29.92F
KLAMATH FALLS  PTSUNNY   50  30  46 S16G26    30.00F
LAKEVIEW       MOSUNNY   48  28  46 S16G22    30.04F
HERMISTON      SUNNY     58  35  42 VRB3      30.00F
PENDLETON      SUNNY     56  34  43 E7        29.99F
JOHN DAY       SUNNY     54  29  37 CALM      29.98S
MEACHAM        SUNNY     49  18  29 VRB3      29.98F
LA GRANDE      SUNNY     52  27  37 CALM      29.99F
BAKER CITY     SUNNY     52  24  33 E7        29.99F
BURNS          SUNNY     50  26  39 S9        30.00F
ROME             N/A     56  23  27 SW12      29.99F
ONTARIO        SUNNY     57  26  30 VRB5      30.02F
$$




USA.gov is the U.S. government's official web portal to all federal, state and local government web resources and services.